Simultaneous Nadir Overpasses (SNOs) Predictions

Prediction of SNOs between LANDSAT-8 and NPP Satellite Orbit:

Table of predicted SNOs for the next 14.0 days since TLE Epoch: 12/21/2013
Index Date (LANDSAT-8) Time (LANDSAT-8) Lat,Lon (LANDSAT-8) SZA (LANDSAT-8 ) Date (NPP) Time (NPP) Lat,Lon (NPP) SZA (NPP ) Distance(km) Time Diff (sec)
1 12/21/2013 06:10:24 -70.20, -95.73 86.46 12/21/2013 06:09:16 -70.21, -95.80 86.44 3.12 68
2 12/21/2013 06:59:51 70.08, 71.75 93.43 12/21/2013 07:00:00 70.08, 71.71 93.43 1.65 9
3 12/21/2013 07:49:25 -69.76,-121.06 86.89 12/21/2013 07:50:37 -69.74,-120.46 86.93 23.58 72
4 12/23/2013 22:26:55 -70.14, 20.06 86.53 12/23/2013 22:26:14 -70.16, 20.05 86.51 1.60 41
5 12/23/2013 23:16:22 70.03,-172.45 93.36 12/23/2013 23:16:58 70.02,-172.44 93.36 0.79 36
6 12/26/2013 13:53:50 70.63, -30.99 93.89 12/26/2013 13:52:40 70.72, -32.39 94.01 52.48 70
7 12/26/2013 14:43:28 -70.10, 135.86 86.64 12/26/2013 14:43:12 -70.11, 135.89 86.62 1.43 16
8 12/26/2013 15:32:55 69.99, -56.65 93.25 12/26/2013 15:33:56 69.98, -56.60 93.24 2.02 61
9 12/29/2013 06:10:31 70.21, 84.24 93.36 12/29/2013 06:09:28 70.21, 84.19 93.36 2.24 63
10 12/29/2013 07:00:02 -70.07,-108.33 86.79 12/29/2013 07:00:09 -70.07,-108.29 86.79 1.76 7
11 12/29/2013 07:49:36 69.57, 58.62 92.72 12/29/2013 07:50:46 69.57, 59.77 92.70 44.69 70
12 12/31/2013 22:27:08 70.19,-159.95 93.15 12/31/2013 22:26:26 70.18,-160.00 93.15 2.13 42
13 12/31/2013 23:16:39 -70.05, 7.48
